Regional Weather Roundup
Issued by NWS Memphis, TN

Home | Current Version | Previous Version | Text Only | Print | Product List | Glossary On
Versions: 1 2 3 4 5 6 7 8 9 10 11 12 13 14 15 16 17 18 19 20 21 22 23 24 25 26 27 28 29 30 31 32 33 34 35 36 37 38 39 40 41 42 43 44 45 46 47 48 49 50
000
ASUS44 KMEG 250610
RWRMEG
MEMPHIS CWA HOURLY WEATHER ROUNDUP
NATIONAL WEATHER SERVICE MEMPHIS TN
100 AM CDT MON JUL 25 2016

...WEST TENNESSEE...

CITY           SKY/WX    TMP DP  RH WIND       PRES   REMARKS
MEMPHIS INTL   PTCLDY    81  75  82 S5        29.96F
6HR MIN TEMP:  81; 6HR MAX TEMP:  89;

NWS MEMPHIS      N/A     80 N/A N/A MISG        N/A
JACKSON        CLEAR     77  76  96 S5        29.97S
6HR MIN TEMP:  75; 6HR MAX TEMP:  89; 6HR PCP:  0.01;

LEXINGTON      CLEAR     73  73 100 SE3       29.97S
DYERSBURG      CLEAR     79  75  89 MISG      29.97R
6HR MIN TEMP:  79; 6HR MAX TEMP:  90;

UNION CITY     CLEAR     79  79 100 CALM      29.97R
PARIS          CLEAR     75  72  88 CALM      29.99R


...EASTERN ARKANSAS...

CITY           SKY/WX    TMP DP  RH WIND       PRES   REMARKS
JONESBORO      CLEAR     79  74  84 S6        29.95R
6HR MIN TEMP:  76; 6HR MAX TEMP:  80;

WEST MEMPHIS   CLEAR     78  76  93 S6        29.95S
6HR MIN TEMP:  77; 6HR MAX TEMP:  85;

BATESVILLE     CLEAR     75  72  88 W3        29.97R
6HR MIN TEMP:  75; 6HR MAX TEMP:  82;

NEWPORT        CLEAR     80  78  94 S5        29.96S
6HR MIN TEMP:  79; 6HR MAX TEMP:  85;

WALNUT RIDGE   PTCLDY    79  72  78 S7        29.95S
6HR MIN TEMP:  79; 6HR MAX TEMP:  88;

BLYTHEVILLE    CLEAR     80  77  90 S3        29.97R
6HR MIN TEMP:  80; 6HR MAX TEMP:  88;

SEARCY         PTCLDY    75  72  90 CALM      29.97S
6HR MIN TEMP:  74; 6HR MAX TEMP:  88;

STUTTGART      CLEAR     79  72  78 W6        29.95F
6HR MIN TEMP:  79; 6HR MAX TEMP:  90;

PINE BLUFF     CLEAR     78  74  87 CALM      29.96S
6HR MIN TEMP:  76; 6HR MAX TEMP:  88;

MONTICELLO     CLEAR     76  73  91 CALM      29.96R
6HR MIN TEMP:  76; 6HR MAX TEMP:  78;



...NORTH MISSISSIPPI...

CITY           SKY/WX    TMP DP  RH WIND       PRES   REMARKS
TUPELO         CLEAR     79  74  84 CALM      29.97F
6HR MIN TEMP:  79; 6HR MAX TEMP:  87;

OXFORD         CLEAR     75  73  94 CALM      29.99S
BATESVILLE     CLEAR     75  74  95 CALM      29.96F FOG
6HR MIN TEMP:  75; 6HR MAX TEMP:  81;

TUNICA         CLEAR     77  73  88 CALM      29.96F
CLARKSDALE     CLEAR     77  77 100 CALM      29.96S
CORINTH        CLEAR     75  73  94 CALM      29.97S FOG
GREENWOOD      CLEAR     76  73  91 S5        29.96S
6HR MIN TEMP:  76; 6HR MAX TEMP:  84;

COLUMBUS       CLEAR     76  76  99 SE6       29.96F
6HR MIN TEMP:  76; 6HR MAX TEMP:  84;

GOLDEN TRIANGL CLEAR     77  70  78 S3        29.96F
6HR MIN TEMP:  75; 6HR MAX TEMP:  88;



...SOUTHEAST MISSOURI...

CITY           SKY/WX    TMP DP  RH WIND       PRES   REMARKS
KENNETT        CLEAR     81  79  94 SW3       29.95R
WEST PLAINS    PTCLDY    77  73  87 CALM      30.01S
6HR MIN TEMP:  77; 6HR MAX TEMP:  89;

POPLAR BLUFF   CLEAR     81  77  88 SW3       29.97R
6HR MIN TEMP:  80; 6HR MAX TEMP:  89;

CAPE GIRARDEAU CLEAR     79  76  90 CALM      29.97R
6HR MIN TEMP:  79; 6HR MAX TEMP:  89;



...NORTHWEST ALABAMA...

CITY           SKY/WX    TMP DP  RH WIND       PRES   REMARKS
MUSCLE SHOALS  CLEAR     76  72  87 SE5       29.99F
6HR MIN TEMP:  75; 6HR MAX TEMP:  80;



...MIDDLE TENNESSEE...

CITY           SKY/WX    TMP DP  RH WIND       PRES   REMARKS
NASHVILLE      MOCLDY    79  73  82 S3        29.99R
6HR MIN TEMP:  79; 6HR MAX TEMP:  91;

CLARKSVILLE    CLEAR     81  74  79 CALM      29.98R
6HR MIN TEMP:  80; 6HR MAX TEMP:  90;

COLUMBIA       CLEAR    N/A N/A N/A CALM      29.99S


...WESTERN KENTUCKY...

CITY           SKY/WX    TMP DP  RH WIND       PRES   REMARKS
PADUCAH        CLEAR     79  76  90 CALM      29.98R
6HR MIN TEMP:  79; 6HR MAX TEMP:  88;

FORT CAMPBELL  CLEAR     80  74  82 W5        29.98R
6HR MIN TEMP:  80; 6HR MAX TEMP:  90;



...CENTRAL ARKANSAS...

CITY           SKY/WX    TMP DP  RH WIND       PRES   REMARKS
LITTLE ROCK    MOCLDY    78  71  79 CALM      29.96S
6HR MIN TEMP:  78; 6HR MAX TEMP:  91;



SKY/WX REPORTED AS FAIR MEANS FEW OR NO CLOUDS BELOW
12 THOUSAND FEET.





USA.gov is the U.S. government's official web portal to all federal, state and local government web resources and services.